Zurück zum Katalog

QIANFAN-42

AktivKommunikationPO
NORAD 62243·PAYLOAD·🇨🇳 China

Gestartet Dec 5, 2024 von Taiyuan Satellite Launch Center

Loading…

Nächste Überflüge (nächste 24 Stunden)

TLE

AktuellSource: Space-Track

Epoche: Sep 14, 2026, 12:57 UTC

1 62243U 24232G   26257.53993595  .00000349  00000-0  14380-3 0  9995
2 62243  89.0138   6.0052 0012746 259.3300 100.6457 14.24645556140632

Verfolge QIANFAN-42 in Echtzeit mit AllMySat

Download on the App Store